Back to catalog

STARLINK-30166

AliveCommunicationsVLEO
NORAD 57602·PAYLOAD·🇺🇸 United States

Launched Aug 11, 2023 from Cape Canaveral Space Force Station

Loading…

Next Passes (next 24 hours)

TLE

FreshSource: CelesTrak SupGP

Epoch: Sep 15, 2026, 01:35 UTC

1 57602C 23119A   26258.06645833  .00021299  00000+0  77111-3 0  2584
2 57602  43.0010  91.8743 0001616 268.4647  15.3434 15.27582203    19

Track STARLINK-30166 in real time with AllMySat

Download on the App Store